Regional Weather Roundup
Issued by NWS

Home | Current Version | Previous Version | Text Only | Print | Product List | Glossary Off
Versions: 1 2 3 4 5 6 7 8 9 10 11 12 13 14 15 16 17 18 19 20 21 22 23 24 25 26 27 28 29 30 31 32 33 34 35 36 37 38 39 40 41 42 43 44 45 46 47 48 49 50

713
ASUS43 KLSX 230410
RWRMO

WEATHER SUMMARY FOR MISSOURI
NATIONAL WEATHER SERVICE SPRINGFIELD MO
1000 PM CST WED FEB 22 2017

NOTE: "FAIR" INDICATES FEW OR NO CLOUDS BELOW 12,000 FEET WITH NO
       SIGNIFICANT WEATHER AND/OR OBSTRUCTIONS TO VISIBILITY.
       CURRENT SKY AND/OR WEATHER CONDITIONS ARE NOT AVAILABLE FOR
       CHILLICOTHE AND FARMINGTON.

MOZ001>031-035>038-043-044-053-054-230500-
...NORTHERN AND WESTERN MISSOURI...

CITY           SKY/WX    TMP DP  RH WIND       PRES   REMARKS
KANSAS CTY INT PTCLDY    55  37  50 N12       29.70R
KANSAS C DTWN  CLEAR     54  37  52 CALM      29.69R
LEE`S SUMMIT   CLEAR     63  36  36 N7        29.70R
ST JOSEPH      CLEAR     52  38  58 N12       29.72R
CHILLICOTHE      N/A     58  38  47 N3        29.71R
KIRKSVILLE     CLEAR     49  41  74 CALM      29.71R

$$
MOZ066>068-077>081-088>096-101>105-230500-
...SOUTHWEST MISSOURI...

CITY           SKY/WX    TMP DP  RH WIND       PRES   REMARKS
SPRINGFIELD    CLEAR     58  54  86 SE10      29.73F
JOPLIN         CLEAR     58  45  62 S10       29.71S
BRANSON        CLEAR     57  54  88 CALM      29.77S

$$
MOZ032>034-039>042-045>050-055>058-069>072-230500-
...CENTRAL MISSOURI...

CITY           SKY/WX    TMP DP  RH WIND       PRES   REMARKS
COLUMBIA       PTCLDY    57  52  83 S7        29.70S
JEFFERSON CITY PTCLDY    61  53  75 E6        29.70S
ROLLA          CLEAR     56  54  93 S12       29.73R
SEDALIA        CLOUDY    64  52  64 SW12      29.70R
WHITEMAN AFB   PTCLDY    55  44  67 SW12      29.68R
WARRENSBURG    PTCLDY    63  41  45 SW12      29.68S
OSAGE BEACH    CLEAR     60  54  80 S9        29.73R

$$
MOZ051-052-059>065-230500-
...EAST CENTRAL MISSOURI...

CITY           SKY/WX    TMP DP  RH WIND       PRES   REMARKS
ST LOUIS INTL  PTCLDY    64  53  67 SW10      29.72R
SPIRIT OF STL  CLEAR     62  55  77 S8        29.71S
ST CHARLES     PTCLDY    56  53  90 S7        29.71S

$$
MOZ072>076-082>087-097>100-106>115-230500-
...SOUTH CENTRAL AND SOUTHEAST MISSOURI...

CITY           SKY/WX    TMP DP  RH WIND       PRES   REMARKS
CAPE GIRARDEAU CLEAR     57  54  89 S7        29.77F
FARMINGTON     CLEAR     57  54  89 SW6       29.77S
POPLAR BLUFF   CLEAR     56  55  97 SW3       29.78F
WEST PLAINS    CLEAR     55  53  93 S5        29.80F

$$




USA.gov is the U.S. government's official web portal to all federal, state and local government web resources and services.